Showing default

OPS 9321 (IDSCS 8), 2645

Orbit data source: Space-Track

OPS 9321 (IDSCS 8), 2645 is a payload satellite owned by USAF SSD (US) in GEO that was launched on Wed, 18 Jan 1967 UTC via a TITAN IIIC launch vehicle from the Air Force Eastern Test Range (AFETR). Payload-class satellites include a variety of spacecraft equipped with specific instruments for various scientific and technological missions. These include communications satellites like Starlink; space stations such as the ISS; scientific satellites like the Hubble; Earth observation satellites from companies like Planet Labs, Umbra, and HawkEye 360; GPS; miniature CubeSats for education and research; and military/defense satellites.

Loading next visibility...
Identifier
2645, 1967-003A
Orbit
GEO
Last TLE update
1 day ago
Origin
Manufacturer
Philco-Ford WDL
Mission
Non-operational Defense Communications
Bus & Motor
IDCSP, Unknown motor
Mass
45 kg wet, 45 kg dry
Launch date (UTC)
1967-01-18 (58 years ago)
Launch vehicle
TITAN IIIC
Launch site
Air Force Eastern Test Range (AFETR)
Object type
Payload
Rocket body
Debris
Shape & HBR
Ico Poly, 0.9 m
Radar Cross Section
0.926 m², Medium (>0.1 m² and < 1m²)

Expand to show TLE details & history

TLE from 1 day ago
0 OPS 9321 (IDSCS 8)
1 02645U 67003A   25174.19236137 -.00000117  00000-0  00000-0 0  9994
2 02645   7.6757  47.8285 0035371 111.5745  64.3904  1.08317691230566
Epoch: 2025-06-23T04:37Z
TLE epoch observation values (Epoch: 2025-06-23T04:37:00.022Z)
Latitude
0.47734°
Longitude
-116.65388°
Altitude
33,611.096 km
Speed
3.16 km/s
True Right ascension
14h 56m 48s
True Declination
0° 28' 37"
Sunlit
Object was in daylight at epoch
Visualization orbit readout
Latitude
4.18849°
Longitude
99.65464°
Altitude
33,642.237 km
Speed
3.157 km/s
Apparent Right ascension
05h 37m 54s
Apparent Declination
-1° 50' 34"
Sunlit
Object is in daylight
Visualization observer readout
Local Sidereal Time
03:20:45
Azimuth
134.565° SE
Elevation
37.788°
Doppler factor
1
Orbital elements
Apogee altitude
33,814.597 km
Perigee altitude
33,531.268 km
Semi-major axis
40,051.069 km
Eccentricity
0.00354
Inclination
7.6757°
RAAN
47.8285°
Arg. of periapsis
111.5745°
True anomaly
Unknown
Mean anomaly
64.3904°
Eccentric anomaly
Unknown
Mean motion
0.27078 °/min
Orbital period
1,329.48 mins
BSTAR
0
Loading historical data...
2645 neighbors
Loading maneuver chart data...
Loading SW <> Apogee altitude chart data...
Loading historical data...
Loading historical data...
Loading historical data...
Loading historical data...
Loading historical data...
Loading historical data...
Loading historical data...

OPS 9321 (IDSCS 8) Visibility forecast

Observer location: undefined°, undefined°

Span
Click to sort rows by Start time (UTC) header in descending order
Start Az.
Max El. time (UTC)
Max El. Az.
Max El.
End time (UTC)
End Az.
1440 mins2025-06-24 16:08:58.077Z134.581° SE2025-06-24 17:59:58.077Z129.655° SE32.025°2025-06-25 16:08:58.077Z105.207° ESE
|